Weather History for Comox, BC

Change the Weather History Date:

Monday, January 7, 2013

  Actual Average Record
Temperature  
Mean Temperature 37 °F -  
Max Temperature 41 °F 43 °F 55 °F (2002)
Min Temperature 33 °F 32 °F 28 °F (2005)
Degree Days  
Heating Degree Days 28    
Moisture  
Dew Point 39 °F    
Average Humidity 97    
Maximum Humidity 100    
Minimum Humidity 89    
Precipitation  
Precipitation 0.16 in 0.21 in - ()
Sea Level Pressure  
Sea Level Pressure 29.90 in    
Wind  
Wind Speed 13 mph ()    
Max Wind Speed 28 mph    
Max Gust Speed 33 mph    
Visibility 14.6 miles    
Events Rain    
Averages and records for this station are not official NWS values.
T = Trace of Precipitation, MM = Missing Value Source: Averaged Metar Reports

Daily Weather History Graph

Daily Weather History Graph

Search for Another Location

Airport:

Trip Planner

Search our weather history database for the weather conditions in past years. The results will help you decide how hot, cold, wet, or windy it might be!

Date:

Astronomy

Jan. 07, 2013 Rise Set
Actual Time 8:15 AM PST 4:37 PM PST
Civil Twilight 7:37 AM PST 5:14 PM PST
Nautical Twilight 6:57 AM PST 5:55 PM PST
Astronomical Twilight 6:18 AM PST 6:33 PM PST
Moon 3:39 AM PST (1/7) 12:57 PM PST (1/7)
Length of Visible Light 9h 36m
Length of Day
8h 21m
Waning Crescent, 21% of the Moon is Illuminated
Jan 7
Waning Crescent
Jan 11
New
Jan 18
First Quarter
Jan 26
Full
Feb 3
Last Quarter

Hourly Weather History & Observations

Time (PST) Temp. Windchill Dew Point Humidity Pressure Visibility Wind Dir Wind Speed Gust Speed Precip Events Conditions
12:00 AM 41.0 °F 31.4 °F 41.0 °F 100% 29.89 in 12.0 mi SE 21.9 mph 28.8 mph N/A Rain Light Rain
1:00 AM 41.0 °F 30.7 °F 39.2 °F 93% 29.87 in 9.0 mi SE 25.3 mph 31.1 mph N/A Rain Light Rain
2:00 AM 41.0 °F 30.7 °F 39.2 °F 93% 29.85 in 12.0 mi SE 25.3 mph - N/A Rain Light Rain
3:00 AM 41.0 °F 30.5 °F 39.2 °F 93% 29.83 in 12.0 mi SE 26.5 mph - N/A Rain Light Rain
4:00 AM 40 °F - 38 °F 89% 29.78 in 12 mi SE 26.5 mph - - Rain Light Rain
4:00 AM 39.2 °F 27.8 °F 37.4 °F 93% 29.78 in 12.0 mi SE 27.6 mph 33.4 mph N/A Rain Light Rain
5:00 AM 39.2 °F 28.7 °F 39.2 °F 100% 29.76 in 12.0 mi SE 23.0 mph 31.1 mph N/A Rain Light Rain
6:00 AM 41.0 °F 31.6 °F 39.2 °F 93% 29.77 in 12.0 mi SE 20.7 mph - N/A Rain Light Rain
7:00 AM 41.0 °F 31.9 °F 39.2 °F 93% 29.76 in 20.0 mi SE 19.6 mph 27.6 mph N/A Rain Light Rain
8:00 AM 41.0 °F 31.9 °F 39.2 °F 93% 29.75 in 20.0 mi SSE 19.6 mph - N/A   Overcast
8:29 AM - - - N/A% - 20.0 mi SSE 16.1 mph 24.2 mph N/A Rain Light Rain Showers
8:57 AM - - - N/A% - 20.0 mi SSE 13.8 mph - N/A   Overcast
9:00 AM 41.0 °F 33.9 °F 39.2 °F 93% 29.78 in 20.0 mi SSE 12.7 mph 18.4 mph N/A   Overcast
9:46 AM - - - N/A% - 20.0 mi South 6.9 mph - N/A Rain Light Rain Showers
10:00 AM 41 °F - 40 °F 94% 29.80 in 19 mi South 6.9 mph - - Rain Light Rain Showers
10:00 AM 41.0 °F 39.0 °F 39.2 °F 93% 29.80 in 20.0 mi SSW 3.5 mph - N/A Rain Light Rain Showers
10:44 AM - - - N/A% - 10.0 mi WNW 6.9 mph - N/A   Light Drizzle
11:00 AM 41.0 °F 36.4 °F 39.2 °F 93% 29.84 in 8.0 mi WNW 6.9 mph - N/A   Light Drizzle
11:37 AM - - - N/A% - 4.0 mi NW 4.6 mph - N/A Rain Light Rain
11:56 AM - - - N/A% - 2.5 mi NNW 5.8 mph - N/A Rain Light Rain
12:00 PM 41.0 °F 38.0 °F 41.0 °F 100% 29.86 in 2.5 mi NW 4.6 mph - N/A Rain Light Rain
1:00 PM 41.0 °F 35.8 °F 41.0 °F 100% 29.87 in 2.0 mi NNW 8.1 mph - N/A Rain Light Rain
1:10 PM - - - N/A% - 1.2 mi NNW 11.5 mph - N/A   Light Drizzle
1:28 PM - - - N/A% - 8.0 mi NNW 11.5 mph - N/A   Light Drizzle
2:00 PM 41.0 °F 35.8 °F 41.0 °F 100% 29.91 in 10.0 mi NNW 8.1 mph - N/A   Overcast
2:28 PM - - - N/A% - 15.0 mi North 5.8 mph - N/A   Overcast
3:00 PM 41.0 °F 38.0 °F 41.0 °F 100% 29.95 in 20.0 mi NW 4.6 mph - N/A   Overcast
3:46 PM - - - N/A% - 20.0 mi Calm Calm - N/A   Overcast
4:00 PM 41 °F - 41 °F 98% 29.98 in 19 mi Calm Calm - -   Partly Cloudy
4:00 PM 41.0 °F - 41.0 °F 100% 29.98 in 20.0 mi Calm Calm - N/A   Overcast
5:00 PM 41.0 °F 37.1 °F 39.2 °F 93% 30.03 in 20.0 mi West 5.8 mph - N/A   Mostly Cloudy
6:00 PM 39.2 °F - 39.2 °F 100% 30.04 in 20.0 mi SW 2.3 mph - N/A   Mostly Cloudy
7:00 PM 37.4 °F - 37.4 °F 100% 30.05 in 20.0 mi NW 2.3 mph - N/A   Scattered Clouds
8:00 PM 35.6 °F 31.7 °F 35.6 °F 100% 30.07 in 20.0 mi SW 4.6 mph - N/A   Mostly Cloudy
9:00 PM 33.8 °F 30.8 °F 33.8 °F 100% 30.08 in 20.0 mi SW 3.5 mph - N/A   Partly Cloudy
10:00 PM 34 °F - 34 °F 99% 30.08 in 19 mi SW 2.3 mph - -   Scattered Clouds
10:00 PM 33.8 °F 30.8 °F 33.8 °F 100% 30.08 in 20.0 mi SW 3.5 mph - N/A   Partly Cloudy
11:00 PM 35.6 °F 30.7 °F 35.6 °F 100% 30.10 in 20.0 mi West 5.8 mph - N/A   Scattered Clouds